Погода в Брацлавке

Россия / Оренбургская область     51°40′17″N   60°16′20″E
темп.,
°C
ветер,
м/с
пор.,
м/с
влажн.,
%
обл.,
%
осадки,
мм/ч
давл.,
гПа
погр.,
м
20 апреля, вт
вт2023:00−1всв8124498 0.0 1030920
02:00−2всв8114649 0.0 1031838
05:00−3всв711471 0.0 1032745
08:00−2всв813380 0.0 1033867
11:00+1всв810320 0.0 10341240
14:00+4всв67320 0.0 10331419
17:00+4всв66325 0.0 10321411
20:00+2всв33460 0.0 103235
21 апреля, ср
ср2123:00+1всв22500 0.0 103311
02:00+1всв22500 0.0 103313
05:000вюв11500 0.0 103410
08:00+2з11410 0.0 1035167
11:00+5вюв11323 0.0 1034793
14:00+8юв223128 0.0 10331153
17:00+10вюв333134 0.0 10331161
20:00+7юв34448 0.0 103347
22 апреля, чт
чт2223:00+6ююв355298 0.0 103466
02:00+4ю3557100 0.0 103571
05:00+3ююв3358100 0.0 103624
08:00+5юв4755100 0.0 1036210
11:00+9ююв6839100 0.0 1036940
14:00+11ююв6837100 0.0 10351188
17:00+12ююв6835100 0.0 10341550
20:00+10ююв4848100 0.0 1034195
23 апреля, пт
пт2323:00+8юв41056100 0.0 1034224
02:00+7ю3666100 0.1 1033163
05:00+6юв4768100 0.1 1033145
08:00+8юв4867100 0.0 1032291
11:00+12ююв6848100 0.0 10311065
14:00+13ююв7841100 0.0 10301619
17:00+13ююв6738100 0.0 10291616
20:00+11юв4945100 0.0 1028274
24 апреля, сб
сб2423:00+9ююв5115793 0.0 1027492
02:00+7юв4864100 0.0 1025289
05:00+6вюв5969100 0.1 1024294
08:00+7юв71251100 0.0 1022559
11:00+11юв10133759 0.1 10191010
14:00+14ююв111429100 0.0 10151297
17:00+16ююв1015304 0.0 10122261
20:00+11юз6868100 0.3 1011598